Regional Weather Roundup
Issued by NWS

Home | Current Version | Previous Version | Graphics & Text | Print | Product List | Glossary On
Versions: 1 2 3 4 5 6 7 8 9 10 11 12 13 14 15 16 17 18 19 20 21 22 23 24 25 26 27 28 29 30 31 32 33 34 35 36 37 38 39 40 41 42 43 44 45 46 47 48 49 50
000
ASUS45 KSLC 011510
RWRUT
UTAH REGIONAL WEATHER ROUNDUP
NATIONAL WEATHER SERVICE SALT LAKE CITY UT
900 AM MDT SAT AUG 01 2015

UTZ001>011-023>025-011600-

NORTHERN UTAH

CITY           SKY/WX    TMP DP  RH WIND       PRES   REMARKS
BRIGHAM CITY   SUNNY     65  41  41 CALM      30.16S
HILL AFB       SUNNY     68  36  31 E18       30.18R
LOGAN          SUNNY     63  42  46 CALM      30.20R
OGDEN          SUNNY     73  37  27 S3        30.16R
PROVO AIRPORT  MOSUNNY   70  34  26 CALM      30.20R
SALT LAKE CITY MOSUNNY   75  38  26 SE9       30.15R
VERNAL         SUNNY     73  32  22 CALM      30.22S
WENDOVER       MOSUNNY   73  30  20 E7        30.16R
HEBER CITY     SUNNY     59  37  44 CALM      30.28S HAZE
WEST JORDAN    SUNNY     73  37  27 S7        30.18R

$$

UTZ012>022-026-027-011600-

SOUTHERN/CENTRAL UTAH

CITY           SKY/WX    TMP DP  RH WIND       PRES   REMARKS
BLANDING       CLOUDY    67  58  71 SE3       30.38R
BRYCE CANYON   CLOUDY    59  46  62 W5        30.40R
CEDAR CITY     CLOUDY    70  46  42 CALM      30.24R
DELTA          MOSUNNY   73  31  21 NE6       30.18R
HANKSVILLE     PTSUNNY   79  55  44 SE3       30.17S
MILFORD        PTSUNNY   69  47  45 S5        30.19R
MOAB/CYNLANDS  SUNNY     82  53  36 S7        30.16R
PRICE          MOSUNNY   76  43  30 SE10      30.27R
ST GEORGE      SUNNY     82  54  36 SE6       30.08S
KANAB          CLOUDY    72  55  56 CALM      30.27R

$$

REGIONAL REPORTS     COLORADO/ARIZONA

CITY           SKY/WX    TMP DP  RH WIND       PRES   REMARKS
CRAIG, CO      SUNNY     66  42  41 CALM      30.30F
GRAND JUNCTION SUNNY     76  47  35 SE12      30.20S
RIFLE          SUNNY     70  45  40 NE5       30.27F
MONTROSE       MOSUNNY   69  50  50 S5        30.30S
CORTEZ         CLOUDY    67  60  78 CALM      30.31R
PAGE, AZ       CLOUDY    78  56  46 S6        30.16R
GRAND CANYON   LGT RAIN  60  58  92 CALM      30.36R
KINGMAN        CLOUDY    82  56  40 SW6       30.11S
FLAGSTAFF      CLOUDY    65  56  72 CALM      30.37R

$$

REGIONAL REPORTS    NEVADA/IDAHO/WYOMING

CITY           SKY/WX    TMP DP  RH WIND       PRES   REMARKS
LAS VEGAS, NV  CLOUDY    90  54  29 S6        29.94R
ELY            CLOUDY    62  34  35 S8        30.30R
ELKO           MOSUNNY   65  26  23 NE5       30.22S
POCATELLO, ID  SUNNY     66  37  34 CALM      30.20R
BURLEY         SUNNY     64  43  46 CALM      30.15R
EVANSTON, WY   SUNNY     65  30  27 CALM      30.36R
ROCK SPRINGS   SUNNY     65  33  30 CALM      30.33R
KEMMERER       SUNNY     64  36  34 N6        30.37S

$$


USA.gov is the U.S. government's official web portal to all federal, state and local government web resources and services.